Weather History for Emporia, KS

Change the Weather History Date:

Saturday, February 23, 2013

  Actual Average Record
Temperature  
Mean Temperature 17 °F 38 °F  
Max Temperature 32 °F 49 °F 68 °F (2007)
Min Temperature 2 °F 27 °F 2 °F (2013)
Degree Days  
Heating Degree Days 48 27  
Month to date heating degree days 706 702  
Since 1 July heating degree days 3423 3690  
Cooling Degree Days 0 0  
Month to date cooling degree days 0 0  
Year to date cooling degree days 0 0  
Moisture  
Dew Point 14 °F    
Average Humidity 82    
Maximum Humidity 100    
Minimum Humidity 63    
Precipitation  
Precipitation 0.00 in 0.05 in 0.87 in (2001)
Month to date precipitation 1.98 1.02  
Year to date precipitation 2.47 1.65  
Sea Level Pressure  
Sea Level Pressure 30.05 in    
Wind  
Wind Speed 6 mph (South)    
Max Wind Speed 15 mph    
Max Gust Speed 16 mph    
Visibility 7 miles    
Events      
T = Trace of Precipitation, MM = Missing Value Source: NWS Daily Summary

Daily Weather History Graph

Daily Weather History Graph

Search for Another Location

Airport:

Trip Planner

Search our weather history database for the weather conditions in past years. The results will help you decide how hot, cold, wet, or windy it might be!

Date:

Astronomy

Feb. 23, 2013 Rise Set
Actual Time 7:04 AM CST 6:12 PM CST
Civil Twilight 6:37 AM CST 6:38 PM CST
Nautical Twilight 6:07 AM CST 7:09 PM CST
Astronomical Twilight 5:36 AM CST 7:40 PM CST
Moon 4:24 PM CST (2/23) 5:26 AM CST (2/23)
Length of Visible Light 12h 00m
Length of Day
11h 07m
Waxing Gibbous, 95% of the Moon is Illuminated
Feb 23
Waxing Gibbous
Feb 25
Full
Mar 4
Last Quarter
Mar 11
New
Mar 19
First Quarter

Hourly Weather History & Observations

Time (CST) Temp. Windchill Dew Point Humidity Pressure Visibility Wind Dir Wind Speed Gust Speed Precip Events Conditions
12:53 AM 12.0 °F 0.5 °F 8.1 °F 84% 30.14 in 7.0 mi West 8.1 mph - N/A   Clear
1:53 AM 10.0 °F -0.9 °F 6.1 °F 84% 30.14 in 6.0 mi West 6.9 mph - N/A   Clear
2:53 AM 9.0 °F 0.6 °F 5.0 °F 84% 30.12 in 6.0 mi West 4.6 mph - N/A   Clear
3:53 AM 8.1 °F - 3.9 °F 83% 30.11 in 5.0 mi Calm Calm - N/A   Clear
4:53 AM 8.1 °F 1.4 °F 6.1 °F 92% 30.09 in 5.0 mi South 3.5 mph - N/A   Clear
5:53 AM 3.0 °F -9.3 °F 1.0 °F 91% 30.09 in 4.0 mi South 6.9 mph - N/A   Clear
6:53 AM 3.9 °F -6.9 °F 1.0 °F 88% 30.09 in 4.0 mi South 5.8 mph - N/A   Clear
7:53 AM 7.0 °F -4.5 °F 3.9 °F 87% 30.09 in 3.0 mi WSW 6.9 mph - N/A   Clear
8:53 AM 8.1 °F - 8.1 °F 100% 30.10 in 3.0 mi Calm Calm - N/A   Clear
9:53 AM 16.0 °F - 14.0 °F 92% 30.09 in 6.0 mi Calm Calm - N/A   Clear
10:53 AM 21.9 °F 12.5 °F 16.0 °F 78% 30.09 in 8.0 mi SW 8.1 mph - N/A   Clear
11:53 AM 27.0 °F 19.5 °F 19.9 °F 75% 30.07 in 7.0 mi SW 6.9 mph - N/A   Clear
12:53 PM 28.0 °F 18.1 °F 21.0 °F 75% 30.06 in 5.0 mi SSW 11.5 mph - N/A   Haze
1:53 PM 30.9 °F 25.2 °F 21.9 °F 69% 30.02 in 7.0 mi South 5.8 mph - N/A   Clear
2:53 PM 32.0 °F 24.8 °F 21.9 °F 66% 30.01 in 8.0 mi SSE 8.1 mph - N/A   Clear
3:53 PM 32.0 °F 24.2 °F 23.0 °F 69% 30.00 in 9.0 mi South 9.2 mph - N/A   Clear
4:53 PM 32.0 °F 25.6 °F 21.9 °F 66% 29.99 in 8.0 mi South 6.9 mph - N/A   Clear
5:53 PM 30.0 °F 23.2 °F 21.0 °F 69% 29.99 in 9.0 mi SSE 6.9 mph - N/A   Clear
6:53 PM 26.1 °F 16.8 °F 19.0 °F 75% 30.01 in 9.0 mi South 9.2 mph - N/A   Clear
7:53 PM 26.1 °F 16.8 °F 19.0 °F 75% 29.99 in 9.0 mi SSE 9.2 mph - N/A   Clear
8:53 PM 25.0 °F 16.3 °F 19.0 °F 78% 30.00 in 9.0 mi SSE 8.1 mph - N/A   Clear
9:53 PM 24.1 °F 14.4 °F 19.0 °F 81% 30.01 in 8.0 mi SSE 9.2 mph - N/A   Clear
10:53 PM 23.0 °F 17.0 °F 19.0 °F 85% 30.01 in 7.0 mi SSE 4.6 mph - N/A   Clear
11:53 PM 18.0 °F 8.7 °F 16.0 °F 92% 30.00 in 6.0 mi SE 6.9 mph - N/A   Clear